Azamara Quest — V7DM6 — position and weather

sailwx.info

Track history (hours):
 
Tides and Currents Weather Stations Pressure Air Temp Water Temp Dewpoint Dewpoint Depression Visibility Wind Speed Wind Dir Waves Ship Positions

Azamara Quest

Last reported at 2018-May-27 14:00 UTC. Time now 2018-May-27 13:59 UTC.
Position N 51°42' W 005°03'.

Length 184 m; draft 7 m.

Type: Tanker. MMSI: 538005401.

Date/timePositionNaut miles runAvg speedWind from/ knotsBaromVisibWave heightAir tempDewpointWater temp
2018-May-27 14:00N 51°42' W 005°03'0 0.0
2018-May-27 13:30N 51°42' W 005°03'0 0.0
2018-May-27 13:00N 51°42' W 005°03'0 0.0
2018-May-27 12:30N 51°42' W 005°03'0 0.0
2018-May-27 12:00N 51°42' W 005°03'0 0.0
2018-May-27 11:30N 51°42' W 005°03'0 0.0
2018-May-27 10:57N 51°42' W 005°03'0 0.0
2018-May-27 10:24N 51°42' W 005°03'0 0.0
2018-May-27 10:00N 51°42' W 005°03'0 0.0
2018-May-27 09:30N 51°42' W 005°03'0 0.0
2018-May-27 09:00N 51°42' W 005°03'0 0.0
2018-May-27 08:30N 51°42' W 005°03'0 0.0
2018-May-27 08:00N 51°42' W 005°03'0 0.0
2018-May-27 07:30N 51°42' W 005°03'0 0.0
2018-May-27 07:00N 51°42' W 005°03'0 0.0
2018-May-27 06:24N 51°42' W 005°03'0 0.0
2018-May-27 06:00N 51°42' W 005°03'0 0.0
2018-May-27 05:30N 51°42' W 005°03'0 0.0
2018-May-27 05:00N 51°42' W 005°03'0 0.0
2018-May-27 04:30N 51°42' W 005°03'0 0.0
2018-May-27 04:00N 51°42' W 005°03'0 0.0
2018-May-27 03:30N 51°42' W 005°03'0 0.0
2018-May-27 03:00N 51°42' W 005°03'0 0.0
2018-May-27 02:30N 51°42' W 005°03'0 0.0
2018-May-27 02:00N 51°42' W 005°03'0 0.0
2018-May-27 01:30N 51°42' W 005°03'0 0.0
2018-May-27 01:00N 51°42' W 005°03'0 0.0
2018-May-27 00:30N 51°42' W 005°03'0 0.0
2018-May-27 00:00N 51°42' W 005°03'0 0.0
2018-May-26 23:30N 51°42' W 005°03'0 0.0
2018-May-26 23:00N 51°42' W 005°03'0 0.0
2018-May-26 22:27N 51°42' W 005°03'0 0.0
2018-May-26 22:00N 51°42' W 005°03'1 1.7
2018-May-26 21:30N 51°42' W 005°05'3 6.2
2018-May-26 21:00N 51°40' W 005°09'510.3
2018-May-26 20:30N 51°36' W 005°14'3 6.4
2018-May-26 20:00N 51°35' W 005°19'511.0
2018-May-26 19:30N 51°36' W 005°28'611.2
2018-May-26 19:00N 51°36' W 005°37'6610.7
2018-May-26 12:47N 52°43' W 005°38'515.5
2018-May-26 12:29N 52°47' W 005°37'815.6
2018-May-26 11:59N 52°55' W 005°35'915.9
2018-May-26 11:23N 53°05' W 005°33'513.8
2018-May-26 11:00N 53°09' W 005°38'714.1
2018-May-26 10:30N 53°14' W 005°46'814.7
2018-May-26 09:59N 53°19' W 005°55'611.4
2018-May-26 09:29N 53°20' W 006°05'5 8.1
2018-May-26 08:55N 53°21' W 006°12'0 0.0
2018-May-26 07:04N 53°21' W 006°12'0 0.0
2018-May-26 06:25N 53°21' W 006°12'0 0.0
2018-May-26 04:16N 53°21' W 006°12'0 0.0
2018-May-26 03:46N 53°21' W 006°12'0 0.0
2018-May-25 22:58N 53°21' W 006°12'0 0.0
2018-May-25 22:22N 53°21' W 006°12'0 0.0
2018-May-25 21:52N 53°21' W 006°12'0 0.0
2018-May-25 18:25N 53°21' W 006°12'0 0.0
2018-May-25 16:10N 53°21' W 006°12'0 0.0
2018-May-25 15:46N 53°21' W 006°12'0 0.0
2018-May-25 09:04N 53°21' W 006°12'0 0.0
2018-May-25 08:22N 53°21' W 006°12'0 0.0
2018-May-25 07:52N 53°21' W 006°12'0 0.0
2018-May-24 20:40N 53°21' W 006°12'0 0.0
2018-May-24 20:07N 53°21' W 006°12'0 0.0
2018-May-24 19:58N 53°21' W 006°12'0 0.0
2018-May-24 15:40N 53°21' W 006°12'0 0.0
2018-May-24 07:19N 53°21' W 006°12'1 1.4
2018-May-24 06:43N 53°21' W 006°11'2 8.0
2018-May-24 06:26N 53°21' W 006°07'2 0.8
2018-May-24 04:32N 53°19' W 006°06'0 0.0
2018-May-23 23:41N 53°19' W 006°06'1 2.9
2018-May-23 23:28N 53°19' W 006°06'4 8.2
2018-May-23 23:00N 53°21' W 006°01'713.8
2018-May-23 22:30N 53°27' W 005°54'1414.3
2018-May-23 21:30N 53°38' W 005°40'714.2
2018-May-23 21:00N 53°44' W 005°33'714.0
2018-May-23 20:30N 53°49' W 005°25'713.5
2018-May-23 20:00N 53°55' W 005°19'713.4
2018-May-23 19:30N 54°00' W 005°12'713.5
2018-May-23 19:00N 54°07' W 005°10'713.6
2018-May-23 18:30N 54°14' W 005°08'713.6
2018-May-23 18:01N 54°20' W 005°07'713.3
2018-May-23 17:30N 54°27' W 005°08'713.8
2018-May-23 17:00N 54°33' W 005°13'714.6
2018-May-23 16:30N 54°40' W 005°18'815.0
2018-May-23 16:00N 54°47' W 005°24'714.6
2018-May-23 15:30N 54°53' W 005°29'714.8
2018-May-23 15:00N 54°59' W 005°37'1114.7
2018-May-23 14:14N 55°08' W 005°49'1114.5
2018-May-23 13:28N 55°17' W 006°01'613.2
2018-May-23 13:01N 55°21' W 006°08'713.2
2018-May-23 12:31N 55°23' W 006°20'713.2
2018-May-23 12:00N 55°25' W 006°31'612.4
2018-May-23 11:30N 55°26' W 006°42'611.8
2018-May-23 11:00N 55°28' W 006°52'610.5
2018-May-23 10:27N 55°30' W 007°01'510.8
2018-May-23 09:58N 55°35' W 007°05'610.9
2018-May-23 09:23N 55°41' W 007°10'1311.4
2018-May-23 08:16N 55°52' W 007°19'373 9.3
2018-May-21 16:16N 58°55' E 002°45'512.2
2018-May-21 15:52N 58°53' E 002°54'512.2
2018-May-21 15:30N 58°52' E 003°02'612.2
2018-May-21 14:58N 58°51' E 003°14'612.1
2018-May-21 14:29N 58°49' E 003°25'612.5
2018-May-21 14:00N 58°47' E 003°36'712.9
2018-May-21 13:29N 58°45' E 003°49'713.0
2018-May-21 12:59N 58°43' E 004°01'613.2
2018-May-21 12:30N 58°41' E 004°12'712.9
2018-May-21 11:56N 58°39' E 004°26'612.5
2018-May-21 11:25N 58°37' E 004°37'611.5
2018-May-21 10:54N 58°35' E 004°48'411.3
2018-May-21 10:30N 58°34' E 004°56'611.3
2018-May-21 10:00N 58°30' E 005°05'712.1
2018-May-21 09:26N 58°26' E 005°15'614.7
2018-May-21 09:00N 58°22' E 005°24'816.5
2018-May-21 08:30N 58°16' E 005°36'816.6
2018-May-21 08:00N 58°11' E 005°48'816.1
2018-May-21 07:29N 58°05' E 005°60'715.6
2018-May-21 07:01N 58°00' E 006°10'714.0
2018-May-21 06:30N 57°56' E 006°20'613.0
2018-May-21 06:00N 57°51' E 006°29'713.1
2018-May-21 05:29N 57°48' E 006°40'713.8
2018-May-21 05:00N 57°48' E 006°53'713.4
2018-May-21 04:29N 57°47' E 007°05'713.7
2018-May-21 04:00N 57°47' E 007°18'713.6
2018-May-21 03:30N 57°46' E 007°30'713.5
2018-May-21 03:00N 57°46' E 007°43'713.5
2018-May-21 02:30N 57°47' E 007°56'713.8
2018-May-21 02:00N 57°50' E 008°07'713.7
2018-May-21 01:30N 57°54' E 008°18'713.4
2018-May-21 01:00N 57°57' E 008°29'1013.2
2018-May-21 00:15N 58°02' E 008°46'412.9
2018-May-20 23:56N 58°05' E 008°52'512.5
2018-May-20 23:30N 58°08' E 008°59'713.6
2018-May-20 23:00N 58°08' E 009°12'713.5
2018-May-20 22:30N 58°07' E 009°25'713.2
2018-May-20 22:00N 58°07' E 009°38'713.5
2018-May-20 21:30N 58°08' E 009°50'713.4
2018-May-20 21:00N 58°09' E 010°03'713.3
2018-May-20 20:29N 58°10' E 010°16'613.0
2018-May-20 20:00N 58°11' E 010°28'713.3
2018-May-20 19:30N 58°12' E 010°40'713.4
2018-May-20 19:00N 58°13' E 010°53'612.9
2018-May-20 18:30N 58°14' E 011°05'510.2
2018-May-20 18:00N 58°15' E 011°14'611.4
2018-May-20 17:30N 58°19' E 011°22'3 6.2
2018-May-20 17:00N 58°21' E 011°26'0 0.0
2018-May-20 04:33N 58°21' E 011°26'0 0.0
2018-May-20 04:30N 58°21' E 011°26'0 0.0
2018-May-20 03:09N 58°21' E 011°26'0 0.0
2018-May-20 03:00N 58°21' E 011°26'0 0.0
2018-May-20 00:39N 58°21' E 011°26'0 0.0
2018-May-20 00:21N 58°21' E 011°26'0 0.0
2018-May-20 00:00N 58°21' E 011°26'0 0.0
2018-May-18 22:31N 58°21' E 011°26'0 0.0
2018-May-18 22:30N 58°21' E 011°26'0 0.8
2018-May-18 22:00N 58°21' E 011°25'4 7.2
2018-May-18 21:30N 58°19' E 011°21'713.5
2018-May-18 21:01N 58°14' E 011°11'3 6.7
2018-May-18 20:30N 58°12' E 011°06'0 1.0
2018-May-18 20:01N 58°12' E 011°06'0 0.5
2018-May-18 19:31N 58°11' E 011°07'1 1.1
2018-May-18 19:01N 58°11' E 011°07'5 9.0
2018-May-18 18:30N 58°06' E 011°06'713.0
2018-May-18 18:00N 57°60' E 011°04'612.6
2018-May-18 17:31N 57°54' E 011°02'510.1
2018-May-18 17:01N 57°49' E 010°60'4 7.1
2018-May-18 16:30N 57°46' E 010°55'4 7.6
2018-May-18 16:00N 57°45' E 010°48'4 7.5
2018-May-18 15:30N 57°43' E 010°42'3 5.2
2018-May-18 15:01N 57°41' E 010°38'0 0.1
2018-May-18 14:27N 57°41' E 010°38'0 0.0
2018-May-18 13:57N 57°41' E 010°38'0 0.0
2018-May-18 13:30N 57°41' E 010°38'0 0.0
2018-May-18 13:00N 57°41' E 010°38'0 0.1
2018-May-18 12:30N 57°41' E 010°38'0 0.2
2018-May-18 12:00N 57°41' E 010°38'0 0.2
2018-May-18 11:30N 57°41' E 010°38'0 0.2
2018-May-18 11:00N 57°41' E 010°38'3 5.7
2018-May-18 10:30N 57°43' E 010°43'510.2
2018-May-18 10:00N 57°48' E 010°42'613.1
2018-May-18 09:30N 57°48' E 010°30'613.0
2018-May-18 09:00N 57°46' E 010°18'713.1
2018-May-18 08:30N 57°45' E 010°06'612.9
2018-May-18 08:00N 57°43' E 009°55'712.7
2018-May-18 07:29N 57°42' E 009°43'  
Track history (hours):
 
Tides and Currents Weather Stations Pressure Air Temp Water Temp Dewpoint Dewpoint Depression Visibility Wind Speed Wind Dir Waves Ship Positions

Azamara Quest

Last reported at 2018-May-27 14:00 UTC. Time now 2018-May-27 13:59 UTC.
Position N 51°42' W 005°03'.

Length 184 m; draft 7 m.

Type: Tanker. MMSI: 538005401.

Date/timePositionNaut miles runAvg speedWind from/ knotsBaromVisibWave heightAir tempDewpointWater temp
2018-May-27 14:00N 51°42' W 005°03'0 0.0
2018-May-27 13:30N 51°42' W 005°03'0 0.0
2018-May-27 13:00N 51°42' W 005°03'0 0.0
2018-May-27 12:30N 51°42' W 005°03'0 0.0
2018-May-27 12:00N 51°42' W 005°03'0 0.0
2018-May-27 11:30N 51°42' W 005°03'0 0.0
2018-May-27 10:57N 51°42' W 005°03'0 0.0
2018-May-27 10:24N 51°42' W 005°03'0 0.0
2018-May-27 10:00N 51°42' W 005°03'0 0.0
2018-May-27 09:30N 51°42' W 005°03'0 0.0
2018-May-27 09:00N 51°42' W 005°03'0 0.0
2018-May-27 08:30N 51°42' W 005°03'0 0.0
2018-May-27 08:00N 51°42' W 005°03'0 0.0
2018-May-27 07:30N 51°42' W 005°03'0 0.0
2018-May-27 07:00N 51°42' W 005°03'0 0.0
2018-May-27 06:24N 51°42' W 005°03'0 0.0
2018-May-27 06:00N 51°42' W 005°03'0 0.0
2018-May-27 05:30N 51°42' W 005°03'0 0.0
2018-May-27 05:00N 51°42' W 005°03'0 0.0
2018-May-27 04:30N 51°42' W 005°03'0 0.0
2018-May-27 04:00N 51°42' W 005°03'0 0.0
2018-May-27 03:30N 51°42' W 005°03'0 0.0
2018-May-27 03:00N 51°42' W 005°03'0 0.0
2018-May-27 02:30N 51°42' W 005°03'0 0.0
2018-May-27 02:00N 51°42' W 005°03'0 0.0
2018-May-27 01:30N 51°42' W 005°03'0 0.0
2018-May-27 01:00N 51°42' W 005°03'0 0.0
2018-May-27 00:30N 51°42' W 005°03'0 0.0
2018-May-27 00:00N 51°42' W 005°03'0 0.0
2018-May-26 23:30N 51°42' W 005°03'0 0.0
2018-May-26 23:00N 51°42' W 005°03'0 0.0
2018-May-26 22:27N 51°42' W 005°03'0 0.0
2018-May-26 22:00N 51°42' W 005°03'1 1.7
2018-May-26 21:30N 51°42' W 005°05'3 6.2
2018-May-26 21:00N 51°40' W 005°09'510.3
2018-May-26 20:30N 51°36' W 005°14'3 6.4
2018-May-26 20:00N 51°35' W 005°19'511.0
2018-May-26 19:30N 51°36' W 005°28'611.2
2018-May-26 19:00N 51°36' W 005°37'6610.7
2018-May-26 12:47N 52°43' W 005°38'515.5
2018-May-26 12:29N 52°47' W 005°37'815.6
2018-May-26 11:59N 52°55' W 005°35'915.9
2018-May-26 11:23N 53°05' W 005°33'513.8
2018-May-26 11:00N 53°09' W 005°38'714.1
2018-May-26 10:30N 53°14' W 005°46'814.7
2018-May-26 09:59N 53°19' W 005°55'611.4
2018-May-26 09:29N 53°20' W 006°05'5 8.1
2018-May-26 08:55N 53°21' W 006°12'0 0.0
2018-May-26 07:04N 53°21' W 006°12'0 0.0
2018-May-26 06:25N 53°21' W 006°12'0 0.0
2018-May-26 04:16N 53°21' W 006°12'0 0.0
2018-May-26 03:46N 53°21' W 006°12'0 0.0
2018-May-25 22:58N 53°21' W 006°12'0 0.0
2018-May-25 22:22N 53°21' W 006°12'0 0.0
2018-May-25 21:52N 53°21' W 006°12'0 0.0
2018-May-25 18:25N 53°21' W 006°12'0 0.0
2018-May-25 16:10N 53°21' W 006°12'0 0.0
2018-May-25 15:46N 53°21' W 006°12'0 0.0
2018-May-25 09:04N 53°21' W 006°12'0 0.0
2018-May-25 08:22N 53°21' W 006°12'0 0.0
2018-May-25 07:52N 53°21' W 006°12'0 0.0
2018-May-24 20:40N 53°21' W 006°12'0 0.0
2018-May-24 20:07N 53°21' W 006°12'0 0.0
2018-May-24 19:58N 53°21' W 006°12'0 0.0
2018-May-24 15:40N 53°21' W 006°12'0 0.0
2018-May-24 07:19N 53°21' W 006°12'1 1.4
2018-May-24 06:43N 53°21' W 006°11'2 8.0
2018-May-24 06:26N 53°21' W 006°07'2 0.8
2018-May-24 04:32N 53°19' W 006°06'0 0.0
2018-May-23 23:41N 53°19' W 006°06'1 2.9
2018-May-23 23:28N 53°19' W 006°06'4 8.2
2018-May-23 23:00N 53°21' W 006°01'713.8
2018-May-23 22:30N 53°27' W 005°54'1414.3
2018-May-23 21:30N 53°38' W 005°40'714.2
2018-May-23 21:00N 53°44' W 005°33'714.0
2018-May-23 20:30N 53°49' W 005°25'713.5
2018-May-23 20:00N 53°55' W 005°19'713.4
2018-May-23 19:30N 54°00' W 005°12'713.5
2018-May-23 19:00N 54°07' W 005°10'713.6
2018-May-23 18:30N 54°14' W 005°08'713.6
2018-May-23 18:01N 54°20' W 005°07'713.3
2018-May-23 17:30N 54°27' W 005°08'713.8
2018-May-23 17:00N 54°33' W 005°13'714.6
2018-May-23 16:30N 54°40' W 005°18'815.0
2018-May-23 16:00N 54°47' W 005°24'714.6
2018-May-23 15:30N 54°53' W 005°29'714.8
2018-May-23 15:00N 54°59' W 005°37'1114.7
2018-May-23 14:14N 55°08' W 005°49'1114.5
2018-May-23 13:28N 55°17' W 006°01'613.2
2018-May-23 13:01N 55°21' W 006°08'713.2
2018-May-23 12:31N 55°23' W 006°20'713.2
2018-May-23 12:00N 55°25' W 006°31'612.4
2018-May-23 11:30N 55°26' W 006°42'611.8
2018-May-23 11:00N 55°28' W 006°52'610.5
2018-May-23 10:27N 55°30' W 007°01'510.8
2018-May-23 09:58N 55°35' W 007°05'610.9
2018-May-23 09:23N 55°41' W 007°10'1311.4
2018-May-23 08:16N 55°52' W 007°19'373 9.3
2018-May-21 16:16N 58°55' E 002°45'512.2
2018-May-21 15:52N 58°53' E 002°54'512.2
2018-May-21 15:30N 58°52' E 003°02'612.2
2018-May-21 14:58N 58°51' E 003°14'612.1
2018-May-21 14:29N 58°49' E 003°25'612.5
2018-May-21 14:00N 58°47' E 003°36'712.9
2018-May-21 13:29N 58°45' E 003°49'713.0
2018-May-21 12:59N 58°43' E 004°01'613.2
2018-May-21 12:30N 58°41' E 004°12'712.9
2018-May-21 11:56N 58°39' E 004°26'612.5
2018-May-21 11:25N 58°37' E 004°37'611.5
2018-May-21 10:54N 58°35' E 004°48'411.3
2018-May-21 10:30N 58°34' E 004°56'611.3
2018-May-21 10:00N 58°30' E 005°05'712.1
2018-May-21 09:26N 58°26' E 005°15'614.7
2018-May-21 09:00N 58°22' E 005°24'816.5
2018-May-21 08:30N 58°16' E 005°36'816.6
2018-May-21 08:00N 58°11' E 005°48'816.1
2018-May-21 07:29N 58°05' E 005°60'715.6
2018-May-21 07:01N 58°00' E 006°10'714.0
2018-May-21 06:30N 57°56' E 006°20'613.0
2018-May-21 06:00N 57°51' E 006°29'713.1
2018-May-21 05:29N 57°48' E 006°40'713.8
2018-May-21 05:00N 57°48' E 006°53'713.4
2018-May-21 04:29N 57°47' E 007°05'713.7
2018-May-21 04:00N 57°47' E 007°18'713.6
2018-May-21 03:30N 57°46' E 007°30'713.5
2018-May-21 03:00N 57°46' E 007°43'713.5
2018-May-21 02:30N 57°47' E 007°56'713.8
2018-May-21 02:00N 57°50' E 008°07'713.7
2018-May-21 01:30N 57°54' E 008°18'713.4
2018-May-21 01:00N 57°57' E 008°29'1013.2
2018-May-21 00:15N 58°02' E 008°46'412.9
2018-May-20 23:56N 58°05' E 008°52'512.5
2018-May-20 23:30N 58°08' E 008°59'713.6
2018-May-20 23:00N 58°08' E 009°12'713.5
2018-May-20 22:30N 58°07' E 009°25'713.2
2018-May-20 22:00N 58°07' E 009°38'713.5
2018-May-20 21:30N 58°08' E 009°50'713.4
2018-May-20 21:00N 58°09' E 010°03'713.3
2018-May-20 20:29N 58°10' E 010°16'613.0
2018-May-20 20:00N 58°11' E 010°28'713.3
2018-May-20 19:30N 58°12' E 010°40'713.4
2018-May-20 19:00N 58°13' E 010°53'612.9
2018-May-20 18:30N 58°14' E 011°05'510.2
2018-May-20 18:00N 58°15' E 011°14'611.4
2018-May-20 17:30N 58°19' E 011°22'3 6.2
2018-May-20 17:00N 58°21' E 011°26'0 0.0
2018-May-20 04:33N 58°21' E 011°26'0 0.0
2018-May-20 04:30N 58°21' E 011°26'0 0.0
2018-May-20 03:09N 58°21' E 011°26'0 0.0
2018-May-20 03:00N 58°21' E 011°26'0 0.0
2018-May-20 00:39N 58°21' E 011°26'0 0.0
2018-May-20 00:21N 58°21' E 011°26'0 0.0
2018-May-20 00:00N 58°21' E 011°26'0 0.0
2018-May-18 22:31N 58°21' E 011°26'0 0.0
2018-May-18 22:30N 58°21' E 011°26'0 0.8
2018-May-18 22:00N 58°21' E 011°25'4 7.2
2018-May-18 21:30N 58°19' E 011°21'713.5
2018-May-18 21:01N 58°14' E 011°11'3 6.7
2018-May-18 20:30N 58°12' E 011°06'0 1.0
2018-May-18 20:01N 58°12' E 011°06'0 0.5
2018-May-18 19:31N 58°11' E 011°07'1 1.1
2018-May-18 19:01N 58°11' E 011°07'5 9.0
2018-May-18 18:30N 58°06' E 011°06'713.0
2018-May-18 18:00N 57°60' E 011°04'612.6
2018-May-18 17:31N 57°54' E 011°02'510.1
2018-May-18 17:01N 57°49' E 010°60'4 7.1
2018-May-18 16:30N 57°46' E 010°55'4 7.6
2018-May-18 16:00N 57°45' E 010°48'4 7.5
2018-May-18 15:30N 57°43' E 010°42'3 5.2
2018-May-18 15:01N 57°41' E 010°38'0 0.1
2018-May-18 14:27N 57°41' E 010°38'0 0.0
2018-May-18 13:57N 57°41' E 010°38'0 0.0
2018-May-18 13:30N 57°41' E 010°38'0 0.0
2018-May-18 13:00N 57°41' E 010°38'0 0.1
2018-May-18 12:30N 57°41' E 010°38'0 0.2
2018-May-18 12:00N 57°41' E 010°38'0 0.2
2018-May-18 11:30N 57°41' E 010°38'0 0.2
2018-May-18 11:00N 57°41' E 010°38'3 5.7
2018-May-18 10:30N 57°43' E 010°43'510.2
2018-May-18 10:00N 57°48' E 010°42'613.1
2018-May-18 09:30N 57°48' E 010°30'613.0
2018-May-18 09:00N 57°46' E 010°18'713.1
2018-May-18 08:30N 57°45' E 010°06'612.9
2018-May-18 08:00N 57°43' E 009°55'712.7
2018-May-18 07:29N 57°42' E 009°43'  

Dump ship's entire track history